When you browse on this site, cookies collect data to enhance your experience and personalize the content and advertising you see.
Visit our Privacy Policy to learn more. By continuing to use the site, you agree to this use of cookies and data.
  • In Austria
  • List of Countries
  • For 7 days
  • Water Temperature
  • Weather Map
  • News
  • Weather Widgets
  • user-avatar
    Login

    Hourly Weather Lapaz

    Today, 3 June, Wednesday

    Time Temperature Precipitation Wind Pressure Humidity
    00:00 +16°C° 0 mm 5 mps 746 mmHg 72%
    01:00 +15°C° 0 mm 5 mps 746 mmHg 72%
    02:00 +15°C° 0 mm 4 mps 746 mmHg 72%
    03:00 +15°C° 0 mm 4 mps 746 mmHg 73%
    04:00 +14°C° 0 mm 3 mps 746 mmHg 74%
    05:00 +17°C° 0 mm 4 mps 746 mmHg 73%
    06:00 +17°C° 0 mm 5 mps 746 mmHg 71%
    07:00 +19°C° 0 mm 5 mps 746 mmHg 70%
    08:00 +21°C° 0 mm 5 mps 746 mmHg 65%
    09:00 +22°C° 0 mm 5 mps 746 mmHg 60%
    10:00 +25°C° 0 mm 5 mps 746 mmHg 56%
    11:00 +26°C° 0 mm 5 mps 746 mmHg 51%
    12:00 +27°C° 0 mm 5 mps 746 mmHg 47%
    13:00 +28°C° 0 mm 6 mps 746 mmHg 43%
    14:00 +28°C° 0 mm 6 mps 746 mmHg 43%
    15:00 +28°C° 0 mm 6 mps 746 mmHg 44%
    16:00 +28°C° 0 mm 6 mps 746 mmHg 44%
    17:00 +27°C° 0 mm 5 mps 746 mmHg 50%
    18:00 +26°C° 0 mm 4 mps 745 mmHg 56%
    19:00 +25°C° 0 mm 4 mps 745 mmHg 61%
    20:00 +23°C° 0 mm 5 mps 745 mmHg 63%
    21:00 +22°C° 0 mm 6 mps 745 mmHg 64%
    22:00 +21°C° 0 mm 6 mps 746 mmHg 66%
    23:00 +21°C° 0 mm 7 mps 745 mmHg 66%

    Tomorrow, 4 June, Thursday

    Time Temperature Precipitation Wind Pressure Humidity
    00:00 +20°C° 0 mm 7 mps 745 mmHg 66%
    01:00 +20°C° 0 mm 8 mps 744 mmHg 67%
    02:00 +18°C° 0 mm 7 mps 744 mmHg 66%
    03:00 +18°C° 0 mm 7 mps 745 mmHg 65%
    04:00 +18°C° 0 mm 7 mps 745 mmHg 64%
    05:00 +18°C° 0 mm 7 mps 745 mmHg 65%
    06:00 +18°C° 0 mm 8 mps 745 mmHg 65%
    07:00 +18°C° 0 mm 8 mps 745 mmHg 66%
    08:00 +20°C° 0 mm 8 mps 745 mmHg 64%
    09:00 +21°C° 0 mm 8 mps 745 mmHg 61%
    10:00 +22°C° 0 mm 8 mps 746 mmHg 58%
    11:00 +22°C° 0 mm 8 mps 746 mmHg 58%
    12:00 +23°C° 0 mm 8 mps 746 mmHg 57%
    13:00 +23°C° 0 mm 8 mps 746 mmHg 56%
    14:00 +23°C° 0 mm 7 mps 746 mmHg 56%
    15:00 +23°C° 0 mm 7 mps 746 mmHg 56%
    16:00 +23°C° 0 mm 6 mps 746 mmHg 57%
    17:00 +22°C° 0 mm 6 mps 746 mmHg 58%
    18:00 +21°C° 0 mm 5 mps 746 mmHg 60%
    19:00 +21°C° 0 mm 5 mps 746 mmHg 62%
    20:00 +20°C° 0 mm 6 mps 746 mmHg 59%
    21:00 +20°C° 0 mm 6 mps 746 mmHg 57%
    22:00 +18°C° 0 mm 7 mps 746 mmHg 54%
    23:00 +18°C° 0 mm 7 mps 746 mmHg 51%

    Day after tomorrow, 5 June, Friday

    Time Temperature Precipitation Wind Pressure Humidity
    00:00 +18°C° 0 mm 7 mps 746 mmHg 49%
    01:00 +18°C° 0 mm 7 mps 746 mmHg 46%
    02:00 +18°C° 0 mm 7 mps 747 mmHg 45%
    03:00 +17°C° 0 mm 7 mps 747 mmHg 45%
    04:00 +17°C° 0 mm 7 mps 747 mmHg 45%
    05:00 +17°C° 0 mm 7 mps 747 mmHg 48%
    06:00 +16°C° 0 mm 7 mps 747 mmHg 51%
    07:00 +16°C° 0 mm 8 mps 747 mmHg 55%
    08:00 +16°C° 0 mm 8 mps 748 mmHg 57%
    09:00 +16°C° 0 mm 8 mps 748 mmHg 58%
    10:00 +16°C° 0 mm 8 mps 748 mmHg 60%
    11:00 +17°C° 0 mm 8 mps 748 mmHg 58%
    12:00 +18°C° 0 mm 8 mps 748 mmHg 57%
    13:00 +20°C° 0 mm 8 mps 749 mmHg 55%
    14:00 +20°C° 0 mm 8 mps 749 mmHg 55%
    15:00 +20°C° 0 mm 8 mps 748 mmHg 54%
    16:00 +21°C° 0 mm 9 mps 748 mmHg 53%
    17:00 +20°C° 0 mm 8 mps 748 mmHg 56%
    18:00 +18°C° 0 mm 8 mps 749 mmHg 58%
    19:00 +17°C° 0 mm 7 mps 749 mmHg 60%
    20:00 +17°C° 0 mm 7 mps 749 mmHg 60%
    21:00 +16°C° 0 mm 7 mps 749 mmHg 59%
    22:00 +15°C° 0 mm 7 mps 749 mmHg 59%
    23:00 +15°C° 0 mm 6 mps 749 mmHg 58%

    6 June, Saturday

    Time Temperature Precipitation Wind Pressure Humidity
    00:00 +15°C° 0 mm 6 mps 749 mmHg 57%
    01:00 +15°C° 0 mm 5 mps 749 mmHg 57%
    02:00 +15°C° 0 mm 5 mps 749 mmHg 56%
    03:00 +15°C° 0 mm 5 mps 750 mmHg 54%
    04:00 +15°C° 0 mm 5 mps 750 mmHg 53%
    05:00 +15°C° 0 mm 5 mps 750 mmHg 56%
    06:00 +14°C° 0 mm 5 mps 750 mmHg 59%
    07:00 +14°C° 0 mm 6 mps 750 mmHg 62%
    08:00 +15°C° 0 mm 6 mps 750 mmHg 61%
    09:00 +16°C° 0 mm 6 mps 750 mmHg 60%
    10:00 +16°C° 0 mm 6 mps 751 mmHg 59%
    11:00 +17°C° 0 mm 5 mps 751 mmHg 58%
    12:00 +17°C° 0 mm 5 mps 751 mmHg 58%
    13:00 +19°C° 0 mm 4 mps 751 mmHg 57%
    14:00 +19°C° 0 mm 4 mps 751 mmHg 58%
    15:00 +20°C° 0 mm 4 mps 751 mmHg 59%
    16:00 +20°C° 0 mm 4 mps 751 mmHg 60%
    17:00 +19°C° 0 mm 4 mps 751 mmHg 62%
    18:00 +19°C° 0 mm 3 mps 751 mmHg 64%
    19:00 +19°C° 0 mm 3 mps 751 mmHg 65%
    20:00 +17°C° 0 mm 3 mps 751 mmHg 69%
    21:00 +14°C° 0 mm 3 mps 751 mmHg 74%
    22:00 +13°C° 0 mm 3 mps 752 mmHg 78%
    23:00 +12°C° 0 mm 3 mps 752 mmHg 75%

    7 June, Sunday

    Time Temperature Precipitation Wind Pressure Humidity
    00:00 +12°C° 0 mm 4 mps 752 mmHg 73%
    01:00 +12°C° 0 mm 4 mps 752 mmHg 70%
    02:00 +11°C° 0 mm 4 mps 752 mmHg 70%
    03:00 +11°C° 0 mm 4 mps 752 mmHg 70%
    04:00 +11°C° 0 mm 4 mps 752 mmHg 70%
    05:00 +12°C° 0 mm 4 mps 752 mmHg 66%
    06:00 +14°C° 0 mm 5 mps 752 mmHg 63%
    07:00 +15°C° 0 mm 5 mps 753 mmHg 60%
    08:00 +17°C° 0 mm 6 mps 753 mmHg 55%
    09:00 +20°C° 0 mm 6 mps 753 mmHg 50%
    10:00 +22°C° 0 mm 6 mps 753 mmHg 45%
    11:00 +23°C° 0 mm 6 mps 753 mmHg 42%
    12:00 +23°C° 0 mm 6 mps 753 mmHg 39%
    13:00 +24°C° 0 mm 7 mps 753 mmHg 37%
    14:00 +24°C° 0 mm 6 mps 753 mmHg 39%
    15:00 +24°C° 0 mm 6 mps 753 mmHg 41%
    16:00 +23°C° 0 mm 6 mps 753 mmHg 44%
    17:00 +22°C° 0 mm 5 mps 753 mmHg 48%
    18:00 +21°C° 0 mm 4 mps 753 mmHg 52%
    19:00 +20°C° 0 mm 3 mps 753 mmHg 57%
    20:00 +19°C° 0 mm 3 mps 753 mmHg 59%
    21:00 +18°C° 0 mm 3 mps 753 mmHg 61%
    22:00 +17°C° 0 mm 3 mps 753 mmHg 62%
    23:00 +17°C° 0 mm 3 mps 753 mmHg 63%

    8 June, Monday

    Time Temperature Precipitation Wind Pressure Humidity
    00:00 +16°C° 0 mm 3 mps 753 mmHg 64%
    01:00 +16°C° 0 mm 3 mps 754 mmHg 65%
    02:00 +16°C° 0 mm 3 mps 754 mmHg 66%
    03:00 +14°C° 0 mm 4 mps 754 mmHg 67%
    04:00 +14°C° 0 mm 4 mps 754 mmHg 67%
    05:00 +15°C° 0 mm 5 mps 754 mmHg 65%
    06:00 +16°C° 0 mm 5 mps 754 mmHg 62%
    07:00 +19°C° 0 mm 6 mps 755 mmHg 59%
    08:00 +20°C° 0 mm 6 mps 755 mmHg 55%
    09:00 +22°C° 0 mm 6 mps 755 mmHg 52%
    10:00 +24°C° 0 mm 6 mps 755 mmHg 49%
    11:00 +26°C° 0 mm 6 mps 755 mmHg 45%
    12:00 +27°C° 0 mm 6 mps 755 mmHg 41%
    13:00 +28°C° 0 mm 6 mps 755 mmHg 37%
    14:00 +28°C° 0 mm 6 mps 755 mmHg 37%
    15:00 +28°C° 0 mm 5 mps 755 mmHg 38%
    16:00 +28°C° 0 mm 5 mps 755 mmHg 39%
    17:00 +27°C° 0 mm 5 mps 755 mmHg 44%
    18:00 +26°C° 0 mm 4 mps 755 mmHg 49%
    19:00 +25°C° 0 mm 4 mps 755 mmHg 54%
    20:00 +23°C° 0 mm 4 mps 755 mmHg 56%
    21:00 +21°C° 0 mm 4 mps 755 mmHg 57%
    22:00 +20°C° 0 mm 4 mps 755 mmHg 59%
    23:00 +19°C° 0 mm 4 mps 755 mmHg 60%
    Show more